Regional Weather Roundup
Issued by NWS Northern Indiana

Home | Current Version | Previous Version | Text Only | Print | Product List | Glossary Off
Versions: 1 2 3 4 5 6 7 8 9 10 11 12 13 14 15 16 17 18 19 20 21 22 23 24 25 26 27 28 29 30 31 32 33 34 35 36 37 38 39 40 41 42 43 44 45 46 47 48 49 50

000
ASUS43 KIWX 270710
RWRIWX

KIWX WEATHER ROUNDUP
NATIONAL WEATHER SERVICE NORTHERN INDIANA
300 AM EDT FRI MAR 27 2015

NOTE: "FAIR" INDICATES FEW OR NO CLOUDS BELOW 12,000 FEET WITH NO
SIGNIFICANT WEATHER AND/OR OBSTRUCTIONS TO VISIBILITY.

* THESE STATIONS ARE NOT UNDER NWS QUALITY CONTROL. THEY ALSO MAY NOT
  REPORT WEATHER SUCH AS PRECIPITATION OR FOG.

INZ001>027-270800-
NORTHERN INDIANA

CITY           SKY/WX    TMP DP  RH WIND       PRES   REMARKS
GARY*          CLOUDY    32  24  71 N12       30.07S WCI  23
VALPARAISO     FLURRIES  29  23  78 N10       30.04R WCI  20
MICHIGAN CITY* CLOUDY    28  19  69 N13G18    30.05S WCI  18
LAPORTE*       CLOUDY    31  24  75 N15       30.04R WCI  20
KNOX*            N/A     32  18  55 N13       30.02S WCI  22
SOUTH BEND     CLOUDY    28  20  71 N14       30.03R WCI  17
GOSHEN         PTCLDY    30  23  75 NW9       29.98F WCI  22
MONTICELLO*    PTCLDY    30  27  86 N9        30.01S WCI  22
LOGANSPORT*    MOCLDY    30  27  86 N6        30.02S WCI  24
ROCHESTER*     CLEAR     32  28  86 NW7       30.00F WCI  26
WARSAW*        CLEAR     30  23  74 NW6       29.99S WCI  24
ANGOLA*        CLOUDY    30  25  80 N9        29.96S WCI  22
FORT WAYNE     PTCLDY    30  24  78 CALM      29.99F
HUNTINGTON*    CLEAR     29  22  74 CALM      29.99S
PERU/GRISSOM   CLEAR     29  24  81 N5        29.99S WCI  24
MARION*        CLEAR     30  25  79 CALM      30.00S

$$
INZ028>050-270800-
CENTRAL INDIANA

CITY           SKY/WX    TMP DP  RH WIND       PRES   REMARKS
LAFAYETTE      CLEAR     27  24  89 N3        30.02S
KOKOMO*          N/A     30  23  74 N6        30.01R WCI  24
MUNCIE*        CLOUDY    32  25  75 N9        29.99S WCI  24
INDIANAPOLIS   CLEAR     31  24  75 N6        29.99R WCI  25

$$
MIZ043>046-050>051-056>058-064>065-071>073-077>080-270800-
SOUTHWEST LOWER MICHIGAN

CITY           SKY/WX    TMP DP  RH WIND       PRES   REMARKS
BATTLE CREEK   CLOUDY    28  18  66 N13       29.99S WCI  17
BENTON HARBOR  CLOUDY    26  17  68 VRB7G16   30.04F WCI  18
COLDWATER*     CLOUDY    29  19  66 N12G18    29.97S WCI  20
HILLSDALE*     CLOUDY    30  20  68 N13       29.94S WCI  20
HOLLAND        PTCLDY    24  12  60 N12G20    30.05S WCI  13
GRAND RAPIDS   MOCLDY    22  12  65 N15G22    30.04R WCI   9
KALAMAZOO      CLOUDY    27  15  61 N16       30.01R WCI  15
STURGIS*       CLOUDY    28  21  74 NW7       29.98S WCI  21
THREE RIVERS*  CLOUDY    30  20  67 N9        30.01R WCI  21

$$
OHZ001>008-015>018-024>025-270800-
NORTHWEST OHIO

CITY           SKY/WX    TMP DP  RH WIND       PRES   REMARKS
WAUSEON*       CLOUDY    32  21  64 NW8       29.96S WCI  25
DEFIANCE       CLOUDY    34  20  56 NW9       29.97F WCI  27
FINDLAY        CLOUDY    34  22  61 NW9       29.95R WCI  27
TOLEDO EXPRESS CLOUDY    32  22  66 NW12      29.95S WCI  23
TOLEDO METCALF CLOUDY    34  22  61 NW12      29.96R WCI  25
LIMA           PTCLDY    33  24  69 NW9       29.97R WCI  25

$$
AND FOR LAKE MICHIGAN COASTAL AND OPEN LAKE BUOY OBSERVATIONS

STATION/POSITION TEMP    WIND        PRES    VSBY  WAVE
                 AIR SEA DIR/SP/G                  HT/PER
                 (F)     (DEG/KT/KT) (MB)    (MI)  (FT/S)
CALUMET HARBOR    30     350/ 12/ 18 1016.9S
MICHIGAN CITY     28     360/ 21/ 24   N/A
BURNS HARBOR      30      30/ 19/ 23 1017.9S
SAINT JOSEPH      27     350/ 13/ 20 1017.9R

$$
&&



USA.gov is the U.S. government's official web portal to all federal, state and local government web resources and services.